SL-8 DEB

Satellite information

Favourite Embed

Satellite Type and Status

DEBRISIN ORBIT

Key statistics

Satellite SL-8 DEB at a glance.

Uptime

12508

Days in orbit

Revolutions

≈ 12.1

Per day

Orbit

LEO

Low Earth Orbit

Inclination

74.2

Latest

Satellite identification and parameters

Extended collection of information and parameters for SL-8 DEB.

Object identification

Identified? True

Debris? True

Object name: SL-8 DEB

International designator: 1991-009DR

Object number (NORAD): 39702

Object ID (CCSDS): 39702

Country: COMMONWEALTH OF INDEPENDENT STATES (CIS)

Current information (Y/N): Y

RCS size: SMALL

Orbital parameters

Period: 118.542 minutes

Inclination: 74.2302 deg

SMA: 7993.564 km

Apoapsis: 1765.938 km

Periapsis: 1464.921 km

RAAN: 312.5717 deg

Eccentricy: 0.0188287

Argument of periapsis: 69.1117 deg

Mean anomaly: 292.996 deg

Mean motion: 12.14764383 rev/day

Mean motion (dot): 0.00000184 rev/day2

B* drag term: 0.0019218 1/REarth

Two-line elements (TLE)

Creation date: May 7, 2025, 10:26 p.m.

Reference frame: TEME

Reference center: EARTH

Epoch: May 7, 2025, 9:01 p.m. UTC

TLE line 0: 0 SL-8 DEB

TLE line 1: 1 39702U 91009DR 25127.87635259 .00000184 00000-0 19218-2 0 9998

TLE line 2: 2 39702 74.2302 312.5717 0188287 69.1117 292.9960 12.14764383508285

Live tracking on map

Real-time ground track for satellite SL-8 DEB.

In-orbit conjunctions

A list of the most updated potential collisions computed for object SL-8 DEB.

Target Orbit TCA Probability of collision Miss distance Type
COSMOS 2037 LEO 2025-03-26 18:05:34 0.001360519 411.0 (m) PAYLOAD
COSMOS 1853 LEO 2025-01-09 00:35:29 0.0007175938 345.0 (m) PAYLOAD
DELTA 1 R/B SSO 2024-08-04 03:00:52 0.0001497875 174.0 (m) ROCKET BODY

Associated space launch

Military communications satellites

SL-8 DEB was lifted into orbit during the mission ‘Kosmos-3M | Strela-1M 353-360’, on board a Kosmos-3M space rocket.

The launch took place on Feb. 12, 1991, 2:44 a.m. from 133/3 (133L).

For more information about the launch, click the button.

Launch to space Kosmos-3M | Strela-1M 353-360
Kosmos-3M | Strela-1M 353-360

Agency: N/A

Status: Launch Successful

Launch date: Feb. 12, 1991, 2:44 a.m. UTC

Rocket: Kosmos-3M

Launch pad: 133/3 (133L)

Location: Plesetsk Cosmodrome, Russian Federation

...

Latest news about this satellite

There are no fresh news available about this satellite. Check back as we update our databases every day.


Newsletter sign-up

Weekly statistics, charts and insights to help you stay on top of the space industry.